#timestamp,LO_Frequency,Hit,StdDev 
1584207135.4,286047133.1,P
1584207155.2,286047135.5,P
1584207175.0,286047135.3,P
1584207175.9,286047135.3,Y
1584207195.8,286047004.4,P
1584207215.6,286047005.2,N
1584207235.5,286047004.7,N
1584207255.3,286047007.1,N
1584207275.1,286047007.0,N
1584207295.9,286047006.3,N
1584207315.7,286047008.4,N
1584207335.5,286047013.6,N
1584207355.4,286047014.7,N
1584207375.2,286047014.8,N
1584207395.1,286047014.5,N
1584207396.0,286047014.5,N
1584207415.8,286047015.3,N
1584207435.6,286047015.6,N
1584207455.5,286047017.1,N
1584207475.3,286047017.7,N
1584207495.1,286047020.4,N
1584207515.9,286047020.0,N
1584207535.7,286047021.0,N
1584207555.6,286047023.4,N
1584207575.4,286047022.2,N
1584207595.2,286047022.6,N
1584207615.1,286047023.7,N
1584207616.0,286047023.7,N
1584207635.8,286047028.3,N
1584207655.6,286047029.1,N
1584207675.5,286047028.5,N
1584207695.3,286047029.1,N
1584207715.2,286047028.7,N
1584207735.9,286047030.6,N
1584207755.7,286047033.7,Y
1584207775.6,286047015.7,P
1584207795.4,286047017.7,P
1584207815.2,286047018.5,P
1584207835.1,286047017.7,Y
1584207836.0,286047017.7,P
1584207855.8,286047000.7,P
1584207875.7,286047000.3,N
1584207895.5,286047000.3,N
1584207915.3,286047002.0,N
1584207935.2,286047002.9,N
1584207955.0,286047005.5,N
1584207955.9,286047005.5,N
1584207975.8,286047007.0,N
1584207995.6,286047006.4,N
1584208015.4,286047010.7,N
1584208035.3,286047010.4,N
1584208055.1,286047009.7,N
1584208075.8,286047011.6,N
1584208095.7,286047013.8,N
1584208115.5,286047012.7,N
1584208135.4,286047017.2,Y
1584208155.2,286047007.9,P
1584208175.0,286047010.2,P
1584208175.9,286047010.2,P
1584208195.8,286047011.7,Y
1584208215.6,286047004.3,P
1584208235.5,286047007.3,P
1584208255.3,286047006.5,P
1584208275.1,286047008.8,Y
1584208295.9,286046999.9,P
1584208315.7,286047000.0,N
1584208335.5,286047001.8,N
1584208355.4,286047003.9,N
1584208375.2,286047005.8,N
1584208395.1,286047004.5,N
1584208396.0,286047004.5,N
1584208415.8,286047006.5,N
1584208435.6,286047009.0,Y
1584208455.5,286047005.5,P
1584208475.3,286047005.3,P
1584208495.1,286047006.7,P
1584208515.9,286047008.9,Y
1584208535.7,286047005.7,P
1584208555.6,286047007.4,P
1584208575.4,286047006.5,P
1584208595.2,286047008.8,Y
1584208615.1,286047002.4,P
1584208616.0,286047002.4,N
1584208635.8,286047004.4,N
1584208655.7,286047006.0,Y
1584208675.5,286047001.5,P
1584208695.3,286047001.4,N
1584208715.2,286047004.2,P
1584208735.0,286047003.7,N
1584208735.9,286047003.7,Y
1584208755.8,286047002.3,P
1584208775.6,286047006.0,P
1584208795.4,286047004.9,P
